Regional Weather Roundup
Issued by NWS Portland, ME

Home | Current Version | Previous Version | Text Only | Print | Product List | Glossary On
Versions: 1 2 3 4 5 6 7 8 9 10 11 12 13 14 15 16 17 18 19 20 21 22 23 24 25 26 27 28 29 30 31 32 33 34 35 36 37 38 39 40 41 42 43 44 45 46 47 48 49 50
000
ASUS41 KGYX 011010
RWRGYX
WEATHER ROUNDUP FOR MAINE AND NEW HAMPSHIRE
NATIONAL WEATHER SERVICE GRAY ME
600 AM EDT TUE SEP 01 2015

MEZ002-005-006-010-012-015-018-020-021-024-026-027-029-011100-
MAINE

CITY           SKY/WX    TMP DP  RH WIND       PRES   REMARKS
PORTLAND       PTCLDY    64  59  83 N6        30.00R
SANFORD        CLEAR     54  48  82 CALM      30.02R
BAR HARBOR     CLEAR     57  55  94 NW3       29.97S
WISCASSET      CLEAR     58  56  93 CALM      30.01R
ROCKLAND       CLEAR     61  54  77 NW3       29.98R
FRYEBURG       CLEAR     53  53 100 CALM      30.03R FOG
LEWISTONAUBURN CLEAR     57 N/A N/A CALM      30.01R
AUGUSTA        CLEAR     59  54  83 NW6       30.01R
WATERVILLE     CLEAR     59  50  72 N6        29.98R
BANGOR         MOCLDY    58  53  84 NW6       29.99R
GREENVILLE       N/A     54  52  93 VRB5      30.01R
MILLINOCKET    CLEAR     59  52  77 NW6       30.00R
HOULTON        CLEAR     56  49  77 N8        29.96R
PRESQUE ISLE   FAIR      54  46  76 NW7       30.00R
FRENCHVILLE    CLEAR     51  46  83 N7        30.00R
CARIBOU        CLEAR     53  48  83 NW6       30.00R
$$

NHZ002-005-008-009-011-012-014-011100-
NEW HAMPSHIRE

CITY           SKY/WX    TMP DP  RH WIND       PRES   REMARKS
PORTSMOUTH     PTCLDY    62  59  91 NW5       30.00R
ROCHESTER      CLEAR     62  58  86 NW7       30.01R
NASHUA         CLEAR     62  59  90 NW6       30.03R
MANCHESTER     CLEAR     68  60  75 VRB6      30.01R
CONCORD        CLEAR     58  56  93 SW3       30.03R FOG
LACONIA        CLEAR     61  57  88 SW5       30.02S
PLYMOUTH       FAIR      59  58  95 NW3       30.03R FOG
BERLIN         FOG       54  52  93 CALM      30.06R VSB<1/4
WHITEFIELD     CLOUDY    51  49  92 CALM      30.07R FOG
JAFFREY        CLEAR     56  55  97 CALM      30.06R FOG
KEENE          CLOUDY    57  54  88 CALM      30.06R VSB 1/2
LEBANON        FOG       60  59  96 NE3       30.05R VSB 3/4
MT WASHINGTON  PTCLDY    48  19  32 NW45        N/A
$$

VTZ005-007-008-011100-
VERMONT

CITY           SKY/WX    TMP DP  RH WIND       PRES   REMARKS
ST JOHNSBURY     N/A     57  55  93 MISG      30.05R
MONTPELIER     CLOUDY    55  54  96 CALM      30.10R FOG
BURLINGTON     PTCLDY    60  58  92 CALM      30.05R
$$

MAZ007-012-024-CTZ003-RIZ002-NYZ038-NYZ072-011100-
SOUTHERN NEW ENGLAND AND NY

CITY           SKY/WX    TMP DP  RH WIND       PRES   REMARKS
BOSTON         PTCLDY    71  61  70 NW9       30.00R
WORCESTER      CLEAR     68  56  65 N9        30.04R
NANTUCKET      CLEAR     69  65  86 N6        29.97R
PROVIDENCE     PTCLDY    68  62  81 W6        30.00R
HARTFORD       PTCLDY    65  62  90 NW6       30.01R
ALBANY         PTCLDY    63  60  90 CALM      30.05R
NEW YORK CITY  PTCLDY    77  67  71 CALM      30.00R
$$

ANZ081-ANZ082-ANZ150-NHZ014-MEZ023>029-011100-
COASTAL MARINE OBSERVATIONS

STATION/POSITION TIME  TEMP    WIND        PRES    WAVE
                       AIR SEA DIR/SP/G            HT/PER
                 (UTC) (F)     (DEG/KT/KT) (MB)    (FT/S)
MOUNT DESERT ROC 1000   61     300/ 14/ 15 1015.1R
MATINICUS ROCK   1000          350/ 12/ 12 1015.1R
ISLE OF SHOALS   1000   66     330/ 12/ 13 1015.4R
JEFFREYS LEDGE   0903      67                N/A     2/ 9
CASHES LEDGE BUO 0950   68                 1014.7R   2/ 9
GEORGES BANK BUO 0950   68 67  340/ 12/ 12 1012.4R   4/ 7
$$

.............KEY..............
   WCI - WIND CHILL
   TC  - TEMPERATURE IN CELSIUS
   VSB - VISIBILITY IN MILES
   HX  - HEAT INDEX
   FAIR- INDICATES FEW OR NO CLOUDS BELOW 12,000 FT, WITH NO
         SIGNIFICANT WEATHER AND/OR OBSTRUCTIONS TO VISIBILITY.




USA.gov is the U.S. government's official web portal to all federal, state and local government web resources and services.